TimeCST,TemperatureF,Dew PointF,Humidity,Sea Level PressureIn,VisibilityMPH,Wind Direction,Wind SpeedMPH,Gust SpeedMPH,PrecipitationIn,Events,Conditions,WindDirDegrees,DateUTC
12:15 AM,18.0,14.7,87,30.43,10.0,Calm,Calm,-,N/A,,Clear,0,2013-01-15 06:15:00
12:35 AM,19.4,15.8,86,30.43,10.0,Calm,Calm,-,N/A,,Clear,0,2013-01-15 06:35:00
12:55 AM,17.6,14.0,86,30.43,10.0,Calm,Calm,-,N/A,,Clear,0,2013-01-15 06:55:00
1:15 AM,18.1,14.9,87,30.42,10.0,Calm,Calm,-,N/A,,Clear,0,2013-01-15 07:15:00
1:35 AM,17.6,14.0,86,30.42,10.0,Calm,Calm,-,N/A,,Clear,0,2013-01-15 07:35:00
1:55 AM,17.6,14.7,88,30.43,10.0,Calm,Calm,-,N/A,,Clear,0,2013-01-15 07:55:00
2:15 AM,17.4,14.5,88,30.43,10.0,Calm,Calm,-,N/A,,Clear,0,2013-01-15 08:15:00
2:35 AM,15.6,12.7,88,30.42,10.0,Calm,Calm,-,N/A,,Clear,0,2013-01-15 08:35:00
2:55 AM,15.8,14.0,93,30.42,10.0,Calm,Calm,-,N/A,,Clear,0,2013-01-15 08:55:00
3:15 AM,15.4,12.6,88,30.40,10.0,Calm,Calm,-,N/A,,Clear,0,2013-01-15 09:15:00
3:35 AM,16.0,12.4,86,30.40,10.0,Calm,Calm,-,N/A,,Clear,0,2013-01-15 09:35:00
3:55 AM,16.3,12.7,86,30.39,10.0,Calm,Calm,-,N/A,,Clear,0,2013-01-15 09:55:00
4:15 AM,16.5,12.7,85,30.40,10.0,Calm,Calm,-,N/A,,Clear,0,2013-01-15 10:15:00
4:35 AM,15.8,12.2,86,30.40,10.0,Calm,Calm,-,N/A,,Clear,0,2013-01-15 10:35:00
4:55 AM,15.8,12.2,86,30.38,10.0,Calm,Calm,-,N/A,,Clear,0,2013-01-15 10:55:00
5:15 AM,15.8,12.2,86,30.38,10.0,Calm,Calm,-,N/A,,Clear,0,2013-01-15 11:15:00
5:35 AM,15.4,12.2,87,30.38,10.0,Calm,Calm,-,N/A,,Clear,0,2013-01-15 11:35:00
5:55 AM,15.4,12.2,87,30.38,10.0,Calm,Calm,-,N/A,,Clear,0,2013-01-15 11:55:00
6:15 AM,14.0,10.4,86,30.39,10.0,Calm,Calm,-,N/A,,Clear,0,2013-01-15 12:15:00
6:35 AM,13.1,10.2,88,30.38,10.0,Calm,Calm,-,N/A,,Clear,0,2013-01-15 12:35:00
6:55 AM,13.8,11.1,89,30.41,10.0,Calm,Calm,-,N/A,,Clear,0,2013-01-15 12:55:00
7:15 AM,15.3,12.2,88,30.41,10.0,Calm,Calm,-,N/A,,Clear,0,2013-01-15 13:15:00
7:35 AM,14.9,12.2,89,30.41,10.0,Calm,Calm,-,N/A,,Clear,0,2013-01-15 13:35:00
7:55 AM,14.5,11.5,88,30.42,10.0,Calm,Calm,-,N/A,,Clear,0,2013-01-15 13:55:00
8:15 AM,15.6,12.9,89,30.43,10.0,Calm,Calm,-,N/A,,Clear,0,2013-01-15 14:15:00
8:35 AM,17.8,14.9,88,30.44,10.0,Calm,Calm,-,N/A,,Clear,0,2013-01-15 14:35:00
8:55 AM,19.9,16.9,88,30.42,10.0,Calm,Calm,-,N/A,,Clear,0,2013-01-15 14:55:00
9:15 AM,22.3,18.5,85,30.40,10.0,ENE,4.6,-,N/A,,Clear,70,2013-01-15 15:15:00
9:35 AM,23.7,19.2,83,30.39,10.0,ENE,5.8,-,N/A,,Clear,70,2013-01-15 15:35:00
9:55 AM,24.8,19.9,82,30.38,10.0,ENE,5.8,-,N/A,,Clear,70,2013-01-15 15:55:00
10:15 AM,25.7,20.1,79,30.38,10.0,East,6.9,-,N/A,,Clear,80,2013-01-15 16:15:00
10:35 AM,26.6,21.0,79,30.38,10.0,ENE,4.6,-,N/A,,Clear,70,2013-01-15 16:35:00
10:55 AM,26.6,20.3,77,30.37,10.0,East,6.9,-,N/A,,Clear,90,2013-01-15 16:55:00
11:15 AM,27.0,20.1,75,30.36,10.0,ENE,5.8,-,N/A,,Clear,70,2013-01-15 17:15:00
11:35 AM,27.3,19.9,74,30.36,10.0,ENE,4.6,-,N/A,,Clear,70,2013-01-15 17:35:00
11:55 AM,27.5,20.3,74,30.35,10.0,ENE,4.6,-,N/A,,Clear,70,2013-01-15 17:55:00
12:15 PM,28.4,21.2,74,30.34,10.0,Calm,Calm,-,N/A,,Clear,0,2013-01-15 18:15:00
12:35 PM,27.9,20.1,73,30.33,10.0,Calm,Calm,-,N/A,,Clear,0,2013-01-15 18:35:00
12:55 PM,28.4,20.3,72,30.32,10.0,Calm,Calm,-,N/A,,Clear,0,2013-01-15 18:55:00
1:15 PM,28.4,21.2,74,30.31,10.0,ENE,3.5,-,N/A,,Clear,70,2013-01-15 19:15:00
1:35 PM,29.3,21.0,71,30.29,10.0,NE,3.5,-,N/A,,Scattered Clouds,50,2013-01-15 19:35:00
1:55 PM,29.3,21.2,72,30.30,10.0,Calm,Calm,-,N/A,,Scattered Clouds,0,2013-01-15 19:55:00
2:15 PM,29.5,21.0,71,30.31,10.0,Calm,Calm,-,N/A,,Scattered Clouds,0,2013-01-15 20:15:00
2:35 PM,29.8,20.8,69,30.32,10.0,Calm,Calm,-,N/A,,Clear,0,2013-01-15 20:35:00
2:55 PM,30.0,20.5,68,30.30,10.0,Calm,Calm,-,N/A,,Clear,0,2013-01-15 20:55:00
3:15 PM,30.4,20.8,68,30.30,10.0,Calm,Calm,-,N/A,,Scattered Clouds,0,2013-01-15 21:15:00
3:35 PM,30.2,20.8,68,30.30,10.0,Calm,Calm,-,N/A,,Scattered Clouds,0,2013-01-15 21:35:00
3:55 PM,30.0,21.2,70,30.30,10.0,Calm,Calm,-,N/A,,Mostly Cloudy,0,2013-01-15 21:55:00
4:15 PM,29.8,21.7,72,30.29,10.0,Calm,Calm,-,N/A,,Mostly Cloudy,0,2013-01-15 22:15:00
4:35 PM,29.3,22.8,77,30.27,10.0,Calm,Calm,-,N/A,,Scattered Clouds,0,2013-01-15 22:35:00
4:55 PM,28.8,22.3,77,30.26,10.0,North,3.5,-,N/A,,Scattered Clouds,360,2013-01-15 22:55:00
5:15 PM,28.2,22.6,80,30.26,10.0,Calm,Calm,-,N/A,,Mostly Cloudy,0,2013-01-15 23:15:00
5:35 PM,27.1,21.9,81,30.25,10.0,North,3.5,-,N/A,,Mostly Cloudy,360,2013-01-15 23:35:00
5:55 PM,26.4,21.2,81,30.24,10.0,North,3.5,-,N/A,,Mostly Cloudy,360,2013-01-15 23:55:00
6:15 PM,25.3,20.7,82,30.24,10.0,North,4.6,-,N/A,,Overcast,350,2013-01-16 00:15:00
6:35 PM,25.3,20.8,83,30.24,10.0,North,3.5,-,N/A,,Mostly Cloudy,360,2013-01-16 00:35:00
6:55 PM,25.7,21.4,84,30.23,10.0,North,3.5,-,N/A,,Overcast,350,2013-01-16 00:55:00
7:15 PM,26.2,21.7,83,30.23,10.0,Calm,Calm,-,N/A,,Overcast,0,2013-01-16 01:15:00
7:35 PM,26.1,21.2,82,30.22,10.0,North,3.5,-,N/A,,Overcast,350,2013-01-16 01:35:00
7:55 PM,25.9,21.2,82,30.21,10.0,Calm,Calm,-,N/A,,Overcast,0,2013-01-16 01:55:00
8:15 PM,25.9,21.0,82,30.21,10.0,Calm,Calm,-,N/A,,Overcast,0,2013-01-16 02:15:00
8:35 PM,26.2,21.2,81,30.20,10.0,Calm,Calm,-,N/A,,Overcast,0,2013-01-16 02:35:00
8:55 PM,26.6,22.1,83,30.21,10.0,Calm,Calm,-,N/A,,Mostly Cloudy,0,2013-01-16 02:55:00
9:15 PM,27.1,23.0,84,30.20,10.0,Calm,Calm,-,N/A,,Overcast,0,2013-01-16 03:15:00
9:35 PM,27.5,23.0,83,30.19,10.0,Calm,Calm,-,N/A,,Mostly Cloudy,0,2013-01-16 03:35:00
9:55 PM,27.3,23.0,84,30.17,10.0,Calm,Calm,-,N/A,,Mostly Cloudy,0,2013-01-16 03:55:00
10:15 PM,27.0,23.0,85,30.18,10.0,Calm,Calm,-,N/A,,Overcast,0,2013-01-16 04:15:00
10:35 PM,26.2,22.3,85,30.17,10.0,Calm,Calm,-,N/A,,Overcast,0,2013-01-16 04:35:00
10:55 PM,25.2,22.1,88,30.17,10.0,WNW,3.5,-,N/A,,Overcast,290,2013-01-16 04:55:00
11:15 PM,26.1,22.8,88,30.17,10.0,WNW,3.5,-,N/A,,Overcast,300,2013-01-16 05:15:00
11:35 PM,25.5,21.9,86,30.16,10.0,Calm,Calm,-,N/A,,Overcast,0,2013-01-16 05:35:00
11:55 PM,24.8,21.2,86,30.15,10.0,Calm,Calm,-,N/A,,Mostly Cloudy,0,2013-01-16 05:55:00